Location: Canazei
(46.4667°N, 11.7667°E)
Time: 05:08:19
(UTC+00:00)

Sich 1 Rocket - Pass Details

Date: 21 April 2021
Orbit: 617 x 651 km, 82.5° (Epoch: 14 May)

Event Time Altitude Azimuth Distance (km) Brightness Sun altitude
Rises 02:38:34 0° 345° (NNW) 2,979 7.4 -15.5°
Reaches altitude 10° 02:40:54 10° 339° (NNW) 2,065 6.4 -15.2°
Maximum altitude 02:45:15 44° 268° (W) 901 4.0 -14.6°
Enters shadow 02:48:26 17° 202° (SSW) 1,623 5.2 -14.2°
